Flag for Philippines Weather past 2 weeks in Makati, Philippines

Now
81 °F

Passing clouds.


Feels Like: 87 °F
Forecast: 78 / 89 °F
Wind: 2 mph from East

Location: National Airport

Current Time: Oct 26, 2014 at 2:57:42 AM

Latest Report: Oct 26, 2014 at 2:00 AM


Visibility: N/A

Pressure: 29.89 "Hg

Humidity: 89%

Dew point: 77 °F

Location of MakatiLocation

Historic Weather in Makati — Graph

°F

Makati temperature yesterday

Maximum temperature yesterday: 91 °F (at 12:00 PM)
Minimum temperature yesterday: 75 °F (at 1:00 AM)
Average temperature yesterday: 84 °F

Past Weeks' High & Low Weather Summary

 TemperatureHumidityPressure
High93 °F (Oct 19, 1:00 PM)100% (Oct 11, 1:00 AM)29.95 "Hg (Oct 11, 1:00 AM)
Low75 °F (Oct 15, 12:00 AM)49% (Oct 16, 1:00 PM)29.65 "Hg (Oct 11, 4:00 AM)
Average82 °F82%29.85 "Hg
* Reported Oct 11 1:00 AM — Oct 26 1:00 AM, Makati, Weather by CustomWeather, © 2014

Note: Actual official high and low records may vary slightly from our data, if they occured in-between our weather recording intervals... More about our weather records

Advertising

Makati weather history for previous 24 hours

 ConditionsComfort  
Time TempWeatherWind HumidityBarometerVisibility
1:00 AM
Oct 26
81 °FPassing clouds.2 mph84%29.89 "HgN/A
12:00 AM81 °FPassing clouds.2 mph84%29.92 "HgN/A
11:00 PM
Oct 25
81 °FPassing clouds.2 mph84%29.92 "HgN/A
10:00 PM82 °FPassing clouds.3 mph74%29.92 "HgN/A
9:00 PM82 °FPassing clouds.3 mph70%29.92 "HgN/A
8:00 PM84 °FPassing clouds.5 mph70%29.92 "HgN/A
7:00 PM84 °FPassing clouds.8 mph79%29.89 "HgN/A
6:00 PM86 °FPassing clouds.10 mph62%29.86 "HgN/A
5:00 PM88 °FPassing clouds.8 mph59%29.83 "HgN/A
4:00 PM90 °FPassing clouds.12 mph55%29.83 "HgN/A
3:00 PM91 °FPassing clouds.10 mph52%29.83 "HgN/A
2:00 PM91 °FPassing clouds.13 mph52%29.83 "HgN/A
1:00 PM91 °FPassing clouds.12 mph52%29.86 "HgN/A
12:00 PM91 °FPassing clouds.9 mph56%29.89 "HgN/A
11:00 AM90 °FPassing clouds.9 mph59%29.89 "HgN/A
10:00 AM88 °FScattered clouds.10 mph62%29.92 "HgN/A
9:00 AM86 °FScattered clouds.9 mph70%29.92 "HgN/A
8:00 AM82 °FScattered clouds.5 mph79%29.92 "HgN/A
7:00 AM81 °FScattered clouds.3 mph79%29.89 "HgN/A
6:00 AM75 °FPassing clouds.5 mph100%29.89 "HgN/A
5:00 AM77 °FPassing clouds.5 mph94%29.86 "HgN/A
4:00 AM75 °FPassing clouds.5 mph94%29.86 "HgN/A
3:00 AM77 °FPassing clouds.3 mph94%29.86 "HgN/A
2:00 AM79 °FPassing clouds.3 mph89%29.86 "HgN/A
Weather by CustomWeather, © 2014

See weather overviewHow to use our weather pages